Regional Weather Roundup
Issued by NWS Charleston, SC

Current Version | Previous Version | Graphics & Text | Print | Product List | Glossary On
Versions: 1 2 3 4 5 6 7 8 9 10 11 12 13 14 15 16 17 18 19 20 21 22 23 24 25 26 27 28 29 30 31 32 33 34 35 36 37 38 39 40 41 42 43 44 45 46 47 48 49 50
000
ASUS42 KCHS 040012
RWRCHS

REGIONAL WEATHER ROUNDUP
NATIONAL WEATHER SERVICE CHARLESTON SC
700 PM EST SAT DEC 03 2016

NOTE: "FAIR" INDICATES FEW OR NO CLOUDS BELOW 12,000 FEET WITH NO
SIGNIFICANT WEATHER AND/OR OBSTRUCTIONS TO VISIBILITY.

NOT ALL STATIONS ARE QUALITY CONTROLLED. USE DATA WITH CAUTION...
ESPECIALLY DEWPOINT OBSERVATIONS.

SCZ027-030-031-034>040-042>050-040100-
...SOUTHEAST SOUTH CAROLINA...

CITY           SKY/WX    TMP DP  RH WIND       PRES   REMARKS
N CHARLESTON   CLOUDY    53  39  59 NE6       30.24R
6HR MIN TEMP:  53; 6HR MAX TEMP:  59;

WATERFRONT PRK   N/A     54  44  69 NE5       30.24R
MOUNT PLEASANT FAIR      50  45  81 CALM      30.25S
JOHNS ISLAND   FAIR      52  45  76 NE6       30.24S
PINOPOLIS        N/A     54  37  54 N6        30.17R
MONCKS CORNER  FAIR      48  37  66 CALM      30.25R
SUMMERVILLE    CLOUDY    50  41  71 N5        30.26S
BEAUFORT MCAS  CLOUDY    54  41  61 NE5       30.25R
6HR MIN TEMP:  54; 6HR MAX TEMP:  61;

BEAUFORT ARPT  MOCLDY    54  43  66 CALM      30.24R
HILTON HEAD IS CLEAR     55  43  62 NE5       30.26R
WALTERBORO     CLOUDY    54  41  62 NE5       30.26R
ALLENDALE      CLOUDY    54  39  58 CALM      30.25R

...SOUTHERN MIDLANDS AND PEE DEE...

CITY           SKY/WX    TMP DP  RH WIND       PRES   REMARKS
GEORGETOWN     NOT AVBL
KINGSTREE      FAIR      43  39  87 CALM      30.26R
ORANGEBURG     CLOUDY    50  38  63 CALM      30.28R
6HR MIN TEMP:  50; 6HR MAX TEMP:  54;

BARNWELL       NOT AVBL
AIKEN          NOT AVBL
MANNING        NOT AVBL
COLUMBIA       CLOUDY    50  41  71 CALM      30.26R
6HR MIN TEMP:  50; 6HR MAX TEMP:  57;

SUMTER         CLOUDY    48  38  69 CALM      30.25R
6HR MIN TEMP:  48; 6HR MAX TEMP:  55;

FLORENCE       CLOUDY    48  39  71 S3        30.26R
6HR MIN TEMP:  48; 6HR MAX TEMP:  55;

MYRTLE BEACH   CLEAR     48  36  61 CALM      30.26S
N MYRTLE BEACH PTCLDY    46  39  76 CALM      30.24S
6HR MIN TEMP:  46; 6HR MAX TEMP:  53;


$$

GAZ063-065-086>088-099>101-113>116-118-119-134>141-150-040100-
...SOUTHEAST GEORGIA...

CITY           SKY/WX    TMP DP  RH WIND       PRES   REMARKS
SAVANNAH ARPT  CLOUDY    56  40  55 E6        30.24R
6HR MIN TEMP:  56; 6HR MAX TEMP:  64;

HUNTER AAF     CLOUDY    56  46  70 NE6       30.22R
6HR MIN TEMP:  56; 6HR MAX TEMP:  63;

FORT STEWART   CLOUDY    55  45  69 CALM      30.21R
6HR MIN TEMP:  55; 6HR MAX TEMP:  64;

STATESBORO     CLOUDY    56  42  59 NE5       30.24R
SYLVANIA       LGT RAIN N/A N/A N/A E3        30.25R
CLAXTON        LGT RAIN  55  49  82 CALM      30.23R

...CSRA...CENTRAL AND FAR SOUTHEAST GEORGIA...

CITY           SKY/WX    TMP DP  RH WIND       PRES   REMARKS
THOMSON        CLOUDY    54  44  70 CALM      30.30R
AUGUSTA-BUSH   CLOUDY    54  37  52 CALM      30.25R
6HR MIN TEMP:  54; 6HR MAX TEMP:  60;

AUGUSTA-DANIEL CLOUDY    55  34  45 E3        30.25R
SWAINSBORO     CLOUDY    55  36  47 NE3       30.24S
VIDALIA        CLOUDY    59  45  58 CALM      30.22S
EASTMAN        CLOUDY    59  29  32 CALM      30.24R
HAZLEHURST     CLOUDY    60  41  51 CALM      30.21R
ALMA           CLOUDY    57  43  59 N3        30.21R
6HR MIN TEMP:  56; 6HR MAX TEMP:  61;

WAYCROSS       CLOUDY    60  49  65 E6        30.20R
JESUP          CLOUDY    57  52  82 NE3       30.22R
BAXLEY         CLOUDY    59  46  63 E3        30.21R
BRUNSWICK      MOCLDY    57  54  88 N6        30.21R
SAINT SIMONS   CLEAR     59  50  72 NE8       30.19R
6HR MIN TEMP:  59; 6HR MAX TEMP:  65;


$$

SCZ027-028-034-036>038-045-046-048>050-GAZ119-141-040100-
...LAKE AND SUPPLEMENTAL COASTAL OBSERVATIONS...

STATION/POSITION TIME  TEMP    WIND        PRES    WAVE   SWELL
                       AIR SEA DIR/SP/G            HT/PER HT/PER/DIR
                 (UTC) (F)     (DEG/KT/KT) (MB)    (FT/S) (FT/S/D)
WINYAH BAY       2245   47     340/  2     1024.0
LAKE MURRAY      2320   52        CALM     1023.7
ACE BASIN NERRS  2245   53        CALM     1023.0
FORT PULASKI     2342   57 62   70/ 10/ 13 1023.6R
SAPELO ISLAND    2300   58      40/  6     1022.0

$$

ANZ835-935-AMZ111-154-330-350-352-354-370-450-454-472-040100-
...C-MAN AND BUOY OBSERVATIONS...

STATION/POSITION TIME  TEMP    WIND        PRES    WAVE   SWELL
                       AIR SEA DIR/SP/G            HT/PER HT/PER/DIR
                 (UTC) (F)     (DEG/KT/KT) (MB)    (FT/S) (FT/S/D)
BUOY 41004       2350   56 75   20/ 12/ 17 1023.4R   4/ 6   2/ 60/ 7
BUOY 41008       2350   62 65   70/ 16/ 17 1022.1R   4/ 6   2/110/ 9
FOLLY BEACH CMAN 2300   54      50/  8/  8 1023.8F
CAPERS NEARSHORE 2308   54 61   70/  6/ 10 1023.5F
FRIPP NEARSHORE  2308   56 62   60/ 12/ 16 1023.2R


STATION/POSITION TIME  TEMP    WIND        PRES    WAVE   SWELL
                       AIR SEA DIR/SP/G            HT/PER HT/PER/DIR
                 (UTC) (F)     (DEG/KT/KT) (MB)    (FT/S) (FT/S/D)
5E ST. MARYS GA  2330      66                N/A     3/ 5
FRYING PAN BUOY  2350   54 73  360/ 10/ 16 1024.0S   3/ 9   2/110/ 9
BUOY 41025       2350   63 74  360/ 16/ 19 1022.8R   5/ 8   3/ 40/ 8
CAPE LOOKOUT NC  2300   50     350/  4/  5 1023.1S
BUOY 41002       2350   63 73  360/ 12/ 16 1021.1R   5/ 8   5/ 40/ 8
BUOY 41010       NOT AVBL
ST AUGUSTINE FL  0000   67 67   30/ 15/ 16 1021.5R


$$



USA.gov is the U.S. government's official web portal to all federal, state and local government web resources and services.